Location: Little Bennett Regional Park
(39.2840°N, 77.2890°W)
Time: 04:33:09
(UTC-05:00)

Daily predictions for brighter satellites

Satellite Brightness Start Highest point End
(mag) Time Altitude Azimuth Time Altitude Azimuth Time Altitude Azimuth
CZ-3 R/B 4.1 03:05:09 58° SSW 03:06:48 59° S 03:18:07 10° ESE
Okean O Rocket 3.5 03:58:28 10° NNE 04:01:00 28° NE 04:01:00 28° NE
Cosmos 1980 Rocket 2.4 04:12:53 68° ENE 04:12:53 68° ENE 04:18:04 10° NNE
Cosmos 1821 Rocket 3.9 04:13:54 81° NNE 04:13:54 81° NNE 04:19:51 10° N
ATLAS 5 CENTAUR R/B 3.1 04:18:04 32° SE 04:18:33 33° ESE 04:22:49 10° NE
PAYLOAD B 4.4 04:17:14 10° NNE 04:22:44 68° ESE 04:24:12 48° SSE
Cosmos 1535 Rocket 4.3 04:25:29 65° S 04:26:29 88° W 04:32:38 10° N
Cosmos 372 Rocket 4.0 04:32:35 70° SSE 04:33:03 77° ESE 04:38:11 10° NNE
SJ 16-02 2.0 04:39:18 45° N 04:39:18 45° N 04:42:26 10° NNE
IDEFIX/ARIANE 42P 4.3 04:33:25 10° NE 04:38:02 31° E 04:42:35 10° SSE
BREEZE-M DEB (TANK) 4.0 04:39:13 23° NNE 04:39:48 25° NNE 04:44:45 10° E
Cosmos 1697 Rocket 3.6 04:43:05 33° NNW 04:43:05 33° NNW 04:46:54 10° N
USA 215 3.6 04:39:09 10° SSE 04:45:00 42° SW 04:45:00 42° SW
Cosmos 1125 Rocket 3.3 04:46:13 60° SW 04:47:09 81° WNW 04:52:23 10° NNE
SL-16 R/B 3.1 04:44:32 10° S 04:49:56 48° ESE 04:55:21 10° NE
Cosmos 1933 3.3 04:52:46 77° NNW 04:52:46 77° NNW 04:56:34 10° N
Meteor 1-31 Rocket 3.7 04:48:59 10° N 04:51:27 38° N 04:51:27 38° N
Hubble Space Telescope 2.8 04:53:32 18° S 04:53:32 18° S 04:56:02 10° SE
COSMO-SKYMED 1 4.0 04:51:20 10° SE 04:55:19 37° ENE 04:59:20 10° N
SJ-6F 4.2 04:51:27 10° N 04:55:33 80° WNW 04:55:44 77° WSW
Cosmos 1605 Rocket 3.8 04:53:09 10° S 04:59:16 83° W 05:05:24 10° N
CZ-2C R/B 4.1 04:58:07 10° NNE 05:02:51 37° E 05:07:37 10° SSE
Okean-O 4.1 04:58:42 10° NNE 05:02:52 38° E 05:06:59 10° SSE
SEDSat Delta rocket 4.3 05:04:52 29° SSW 05:05:44 31° S 05:09:48 10° SE
CZ-2C R/B 3.8 05:05:37 10° SSE 05:10:17 80° ENE 05:14:54 10° N
Meteor 1-26 Rocket 4.4 05:06:09 10° S 05:12:02 77° E 05:17:52 10° NNE
COSMOS 2455 2.7 05:08:30 10° NNW 05:14:32 73° WSW 05:20:30 10° SSE
Cosmos 1606 4.4 05:13:12 10° SSE 05:16:42 35° E 05:20:11 10° NNE
CZ-4B R/B 3.4 05:12:18 10° N 05:17:32 47° WNW 05:21:43 16° SW
Feng Yun 1-1 Rocket 4.5 05:15:52 10° NNE 05:21:29 74° ESE 05:27:12 10° S
Cosmos 1633 3.7 05:20:55 10° N 05:24:26 45° E 05:27:56 10° SSE
Cosmos 1459 Rocket 4.5 05:22:13 10° S 05:28:23 65° E 05:34:39 10° NNE
IRS-1C Rocket 4.3 05:23:28 10° N 05:28:30 46° WNW 05:33:30 10° SW
Cosmos 2263 Rocket 2.6 05:23:35 10° NNW 05:29:15 66° ENE 05:34:53 10° SSE
Cosmos 2173 Rocket 4.3 05:25:46 10° S 05:31:53 68° E 05:37:58 10° NNE
Lacrosse 5 rocket 3.5 05:34:29 11° SW 05:34:29 11° SW 05:34:50 10° SSW
USA 116 4.4 05:30:44 10° S 05:35:10 49° W 05:40:07 10° NNW
Cosmos 1269 Rocket 4.1 05:30:47 10° NNW 05:35:54 50° WSW 05:40:58 10° S
Cosmos 405 Rocket 3.1 05:33:56 10° SSW 05:37:42 42° WNW 05:41:25 10° N
Okean O Rocket 3.1 05:35:36 10° NNW 05:38:29 19° WNW 05:38:29 19° WNW
Cosmos 1802 Rocket 4.5 05:33:29 10° S 05:39:48 67° E 05:46:04 10° NNE
Cosmos 2061 Rocket 4.4 05:34:25 10° S 05:40:32 68° E 05:46:41 10° NNE
Meteor 1-14 Rocket 4.3 05:36:41 10° N 05:42:41 81° W 05:48:33 10° S
SKYMED 2 3.5 05:38:59 10° S 05:43:15 61° W 05:47:34 10° NNW
Radarsat Rocket 4.0 05:38:34 10° NNE 05:44:28 90° S 05:50:47 10° SSW
Cosmos 2322 Rocket 2.2 05:41:09 10° SW 05:46:43 59° WNW 05:52:23 10° NNE
Cosmos 374 Rocket 4.2 05:43:17 10° NW 05:47:31 74° WSW 05:51:19 10° SSE
PAYLOAD A 4.0 05:45:10 10° N 05:49:52 55° WNW 05:54:42 10° SSW
ISS -1.3 05:50:05 10° S 05:52:39 21° SE 05:55:14 10° E
Cosmos 405 4.1 05:49:49 10° NW 05:52:41 23° W 05:55:33 10° SW
NOAA 6 4.2 05:48:01 10° N 05:53:01 50° WNW 05:57:57 10° SW
Cosmos 2360 Rocket 2.6 05:48:42 10° S 05:54:18 67° ESE 05:59:56 10° NNE
Sich 1 Rocket 4.0 05:50:11 10° N 05:54:33 68° E 05:58:55 10° SSE
DMSP B5D1-3 4.5 05:51:08 10° S 05:56:13 80° WSW 06:01:21 10° NNW
Cosmos 1980 Rocket 3.7 05:54:41 14° W 05:57:00 17° NW 06:00:42 10° N
EO 1 Del DPAF 3.1 05:56:31 10° S 06:00:20 79° WSW 06:04:11 10° NNW
Landsat 4 3.7 05:57:54 10° S 06:01:33 56° W 06:05:13 10° NNW
Cosmos 1703 Rocket 3.6 05:57:25 10° S 06:01:54 85° W 06:06:24 10° N
Cosmos 1461 3.0 05:57:52 10° SSW 06:02:10 88° NW 06:06:44 10° NNE
ATLAS 5 CENTAUR R/B 2.7 05:59:39 12° WSW 06:03:11 29° NW 06:07:32 10° NNE
Meteor 1-25 Rocket 4.3 05:58:30 10° NNW 06:04:08 58° W 06:09:47 10° S
Milstar 3 Cent rocket 4.5 06:00:24 10° SW 06:05:45 30° SSE 06:14:39 10° E
EXPRESS MD2 4.5 06:02:49 10° WNW 06:07:05 64° SW 06:16:16 10° SE
Lacrosse 4 Rocket 3.3 06:06:29 10° S 06:10:07 33° ESE 06:13:46 10° NE
Aureole 2 Rocket 1.9 06:14:22 10° SSW 06:16:58 48° WNW 06:19:38 10° N
Cosmos 1908 Rocket 3.8 06:12:54 10° NNW 06:17:07 48° W 06:21:17 10° SSW
IDEFIX/ARIANE 42P 3.3 06:13:01 10° N 06:17:32 31° WNW 06:22:02 10° SW
Cosmos 1733 Rocket 4.4 06:16:54 10° NW 06:19:55 18° W 06:22:56 10° SW
Thor Agena Rocket 4.1 06:17:47 10° SSE 06:23:00 66° ENE 06:28:10 10° N
Cosmos 1725 Rocket 4.1 06:16:52 10° S 06:23:10 88° E 06:29:32 10° N
Cosmos 2251 Rocket 3.6 06:18:07 10° NNW 06:23:23 67° WSW 06:28:38 10° S
SMAP 3.6 06:19:31 10° NNE 06:24:10 67° ESE 06:28:47 10° S
USA 229 DEB 3.9 06:21:23 10° NW 06:28:38 80° WSW 06:36:01 10° SSE
USA 229 3.9 06:21:30 10° NW 06:28:44 81° WSW 06:36:08 10° SSE
